This is the latest recevied weather packets stored in our database for station/object N0ZJT. If no packets are shown the sender has not sent any weather packets the latest 1 day(s).
| Time | Temp. | Humidity | Pressure | Rain* | Wind** | Luminosity | Snow |
|---|---|---|---|---|---|---|---|
| 1778031982 | 10.56° C | 37% | 972.9 hPa | 0 mm | - | - | - |
| 1778031142 | 10.56° C | 37% | 972.4 hPa | 0 mm | - | - | - |
| 1778030182 | 11.11° C | 36% | 972.5 hPa | 0 mm | - | - | - |
| 1778029342 | 11.11° C | 36% | 972.1 hPa | 0 mm | - | - | - |
| 1778028382 | 11.67° C | 35% | 972 hPa | 0 mm | - | - | - |
| 1778027542 | 11.67° C | 35% | 971.9 hPa | 0 mm | - | - | - |
| 1778026582 | 12.22° C | 34% | 971.6 hPa | 0 mm | - | - | - |
| 1778023942 | 13.33° C | 33% | 971.3 hPa | 0 mm | - | - | - |
| 1778022982 | 13.89° C | 32% | 971.2 hPa | 0 mm | - | - | - |
| 1778022142 | 13.89° C | 31% | 971.2 hPa | 0 mm | - | - | - |
| 1778021182 | 14.44° C | 31% | 971.2 hPa | 0 mm | - | - | - |
| 1778020342 | 14.44° C | 32% | 971.1 hPa | 0 mm | - | - | - |
| 1778019382 | 15° C | 31% | 971.2 hPa | 0 mm | - | - | - |
| 1778017582 | 15.56° C | 30% | 971.5 hPa | 0 mm | - | - | - |
| 1778016742 | 16.11° C | 29% | 971.2 hPa | 0 mm | - | - | - |
| 1778015782 | 15.56° C | 31% | 971.3 hPa | 0 mm | - | - | - |
| 1778014942 | 16.11° C | 29% | 971.3 hPa | 0 mm | - | - | - |
| 1778013982 | 16.11° C | 28% | 971.3 hPa | 0 mm | - | - | - |
| 1778013142 | 17.22° C | 28% | 971.7 hPa | 0 mm | - | - | - |
| 1778011342 | 17.22° C | 29% | 971.7 hPa | 0 mm | - | - | - |
| 1778010382 | 16.11° C | 29% | 971.9 hPa | 0 mm | - | - | - |
| 1778009542 | 16.67° C | 29% | 972 hPa | 0 mm | - | - | - |
| 1778008582 | 16.67° C | 28% | 972.2 hPa | 0 mm | - | - | - |
| 1778007742 | 15.56° C | 31% | 972.2 hPa | 0 mm | - | - | - |
| 1778005942 | 15.56° C | 31% | 972.5 hPa | 0 mm | - | - | - |
* Rain latest hour (hover to see other rain measurements)
** Current wind speed in m/s (hover to see current wind gust speed)